TimeEDT,TemperatureF,Dew PointF,Humidity,Sea Level PressureIn,VisibilityMPH,Wind Direction,Wind SpeedMPH,Gust SpeedMPH,PrecipitationIn,Events,Conditions,WindDirDegrees,DateUTC
12:51 AM,71.1,45.0,39,30.25,10.0,SW,10.4,-,N/A,,Mostly Cloudy,220,2013-06-22 04:51:00
1:51 AM,70.0,44.1,39,30.25,10.0,SW,6.9,-,N/A,,Mostly Cloudy,220,2013-06-22 05:51:00
2:51 AM,70.0,44.1,39,30.25,10.0,SSW,8.1,-,N/A,,Mostly Cloudy,210,2013-06-22 06:51:00
3:51 AM,69.1,45.0,42,30.25,10.0,SSW,6.9,-,N/A,,Scattered Clouds,200,2013-06-22 07:51:00
4:51 AM,68.0,44.1,42,30.25,10.0,South,6.9,-,N/A,,Partly Cloudy,190,2013-06-22 08:51:00
5:51 AM,66.9,46.9,49,30.26,10.0,SSW,6.9,-,N/A,,Scattered Clouds,210,2013-06-22 09:51:00
6:51 AM,66.9,54.0,63,30.24,10.0,SSW,8.1,-,N/A,,Scattered Clouds,200,2013-06-22 10:51:00
7:51 AM,70.0,53.1,55,30.24,10.0,SSW,6.9,-,N/A,,Scattered Clouds,200,2013-06-22 11:51:00
8:51 AM,73.0,48.0,41,30.25,10.0,SW,8.1,-,N/A,,Scattered Clouds,230,2013-06-22 12:51:00
9:51 AM,75.0,51.1,43,30.25,10.0,SW,9.2,-,N/A,,Mostly Cloudy,220,2013-06-22 13:51:00
10:51 AM,77.0,55.9,48,30.25,10.0,SSW,6.9,-,N/A,,Mostly Cloudy,200,2013-06-22 14:51:00
11:51 AM,79.0,55.9,45,30.25,10.0,WNW,4.6,-,N/A,,Mostly Cloudy,290,2013-06-22 15:51:00
12:51 PM,82.0,51.1,34,30.24,10.0,Variable,6.9,-,N/A,,Mostly Cloudy,0,2013-06-22 16:51:00
1:51 PM,82.9,52.0,34,30.20,10.0,SSW,10.4,-,N/A,,Mostly Cloudy,210,2013-06-22 17:51:00
2:51 PM,82.0,57.9,44,30.21,10.0,South,15.0,20.7,N/A,,Mostly Cloudy,180,2013-06-22 18:51:00
3:51 PM,78.1,57.0,48,30.19,10.0,South,13.8,-,N/A,,Mostly Cloudy,180,2013-06-22 19:51:00
4:51 PM,75.9,55.9,50,30.16,10.0,South,17.3,21.9,N/A,,Mostly Cloudy,180,2013-06-22 20:51:00
5:51 PM,75.9,57.9,54,30.16,10.0,South,12.7,19.6,N/A,,Mostly Cloudy,180,2013-06-22 21:51:00
6:51 PM,73.9,54.0,50,30.14,10.0,South,17.3,25.3,N/A,,Mostly Cloudy,170,2013-06-22 22:51:00
7:51 PM,73.0,53.1,49,30.14,10.0,South,16.1,23.0,N/A,,Mostly Cloudy,180,2013-06-22 23:51:00
8:51 PM,72.0,55.0,55,30.14,10.0,South,11.5,21.9,N/A,,Mostly Cloudy,180,2013-06-23 00:51:00
9:51 PM,72.0,51.1,48,30.17,10.0,South,9.2,-,N/A,,Mostly Cloudy,170,2013-06-23 01:51:00
10:51 PM,72.0,55.0,55,30.18,10.0,South,9.2,-,N/A,,Mostly Cloudy,180,2013-06-23 02:51:00
11:51 PM,73.0,54.0,51,30.17,10.0,SSW,12.7,-,N/A,,Scattered Clouds,210,2013-06-23 03:51:00